Weather History for Salisbury, MD

Change the Weather History Date:

Sunday, May 12, 2013

  Actual Average Record
Temperature  
Mean Temperature 59 °F 61 °F  
Max Temperature 70 °F 72 °F 93 °F (1914)
Min Temperature 48 °F 50 °F 34 °F (1946)
Degree Days  
Heating Degree Days 6 5  
Month to date heating degree days 65 75  
Since 1 July heating degree days 3813 4355  
Cooling Degree Days 0 2  
Month to date cooling degree days 18 13  
Year to date cooling degree days 64 30  
Growing Degree Days 12 (Base 50)    
Moisture  
Dew Point 50 °F    
Average Humidity 57    
Maximum Humidity 87    
Minimum Humidity 26    
Precipitation  
Precipitation 0.46 in 0.12 in 1.55 in (1932)
Month to date precipitation 1.83 1.27  
Year to date precipitation 17.16 16.20  
Snow  
Snow 0.00 in 0.00 in 0.00 in (2002)
Month to date snowfall 0.0 0.0  
Since 1 July snowfall 2.8 9.3  
Snow Depth 0.00 in    
Sea Level Pressure  
Sea Level Pressure 29.82 in    
Wind  
Wind Speed 8 mph (NW)    
Max Wind Speed 22 mph    
Max Gust Speed 31 mph    
Visibility 8 miles    
Events Rain , Thunderstorm    
T = Trace of Precipitation, MM = Missing Value Source: NWS Daily Summary

Daily Weather History Graph

Daily Weather History Graph

Search for Another Location

Airport:

Trip Planner

Search our weather history database for the weather conditions in past years. The results will help you decide how hot, cold, wet, or windy it might be!

Date:

Astronomy

May. 12, 2013 Rise Set
Actual Time 5:53 AM EDT 8:03 PM EDT
Civil Twilight 5:23 AM EDT 8:33 PM EDT
Nautical Twilight 4:47 AM EDT 9:09 PM EDT
Astronomical Twilight 4:08 AM EDT 9:49 PM EDT
Moon 7:47 AM EDT (5/12) 10:28 PM EDT (5/12)
Length of Visible Light 15h 09m
Length of Day
14h 10m
Waxing Crescent, 6% of the Moon is Illuminated
May 12
Waxing Crescent
May 18
First Quarter
May 25
Full
May 31
Last Quarter
Jun 8
New

Hourly Weather History & Observations

Time (EDT) Temp. Dew Point Humidity Pressure Visibility Wind Dir Wind Speed Gust Speed Precip Events Conditions
12:20 AM 68.0 °F 64.4 °F 88% 29.74 in 2.5 mi Variable 4.6 mph - 0.10 in Rain , Thunderstorm Thunderstorms and Rain
12:27 AM 66.2 °F 62.6 °F 88% 29.75 in 1.5 mi NE 4.6 mph - 0.14 in Rain , Thunderstorm Light Thunderstorms and Rain
12:31 AM 68.0 °F 62.6 °F 83% 29.75 in 4.0 mi ENE 3.5 mph - 0.15 in Rain , Thunderstorm Light Thunderstorms and Rain
12:44 AM 66.2 °F 62.6 °F 88% 29.74 in 9.0 mi Calm Calm - 0.15 in Rain , Thunderstorm Light Thunderstorms and Rain
12:54 AM 66.9 °F 63.0 °F 87% 29.74 in 10.0 mi Calm Calm - 0.15 in Thunderstorm Overcast
1:02 AM 66.2 °F 62.6 °F 88% 29.74 in 8.0 mi NW 4.6 mph - 0.01 in Thunderstorm Overcast
1:13 AM 66.2 °F 62.6 °F 88% 29.76 in 1.8 mi WNW 10.4 mph - 0.15 in Rain , Thunderstorm Heavy Thunderstorms and Rain
1:28 AM 66.2 °F 60.8 °F 83% 29.75 in 3.0 mi WNW 5.8 mph - 0.35 in Rain , Thunderstorm Light Thunderstorms and Rain
1:54 AM 66.0 °F 61.0 °F 84% 29.74 in 7.0 mi NNE 3.5 mph - 0.39 in Rain Light Rain
2:54 AM 64.9 °F 61.0 °F 87% 29.74 in 10.0 mi Calm Calm - 0.00 in   Overcast
3:54 AM 64.9 °F 61.0 °F 87% 29.74 in 10.0 mi Calm Calm - 0.00 in   Overcast
4:54 AM 64.9 °F 60.1 °F 84% 29.78 in 6.0 mi West 4.6 mph - 0.02 in Rain Light Rain
5:54 AM 64.0 °F 60.1 °F 87% 29.77 in 9.0 mi West 3.5 mph 33.4 mph 0.04 in   Mostly Cloudy
6:54 AM 64.0 °F 57.9 °F 80% 29.77 in 10.0 mi WNW 5.8 mph - 0.00 in   Scattered Clouds
7:54 AM 63.0 °F 54.0 °F 72% 29.79 in 10.0 mi NW 5.8 mph - N/A   Overcast
8:54 AM 63.0 °F 53.1 °F 70% 29.82 in 10.0 mi West 8.1 mph - N/A   Overcast
9:54 AM 64.0 °F 54.0 °F 70% 29.81 in 10.0 mi NW 8.1 mph - 0.01 in Rain Light Rain
10:03 AM 64.4 °F 53.6 °F 68% 29.80 in 10.0 mi NNW 10.4 mph - 0.00 in Rain Light Rain
10:54 AM 66.9 °F 51.1 °F 57% 29.82 in 10.0 mi WNW 13.8 mph 18.4 mph 0.00 in Rain Light Rain
11:54 AM 68.0 °F 50.0 °F 52% 29.81 in 10.0 mi WNW 10.4 mph 17.3 mph 0.00 in Rain Light Rain
12:54 PM 70.0 °F 46.9 °F 44% 29.82 in 10.0 mi WNW 11.5 mph 20.7 mph 0.00 in Rain Light Rain
1:54 PM 69.1 °F 45.0 °F 42% 29.83 in 10.0 mi WNW 12.7 mph - 0.00 in Rain Light Rain
2:54 PM 66.9 °F 42.1 °F 40% 29.83 in 10.0 mi NW 18.4 mph 31.1 mph 0.00 in Rain Light Rain
3:54 PM 68.0 °F 42.1 °F 39% 29.83 in 10.0 mi NW 20.7 mph 27.6 mph 0.00 in   Clear
4:54 PM 68.0 °F 36.0 °F 31% 29.85 in 10.0 mi NW 12.7 mph 23.0 mph N/A   Clear
5:54 PM 66.0 °F 32.0 °F 28% 29.87 in 10.0 mi NW 12.7 mph 24.2 mph N/A   Clear
6:54 PM 64.9 °F 28.9 °F 26% 29.89 in 10.0 mi NW 15.0 mph - N/A   Clear
7:54 PM 61.0 °F 30.9 °F 32% 29.92 in 10.0 mi NNW 9.2 mph - N/A   Clear
8:54 PM 59.0 °F 30.9 °F 35% 29.96 in 10.0 mi WNW 4.6 mph - N/A   Clear
9:54 PM 57.0 °F 32.0 °F 39% 29.99 in 10.0 mi WNW 4.6 mph - N/A   Clear
10:54 PM 55.9 °F 30.9 °F 39% 30.01 in 10.0 mi West 3.5 mph - N/A   Clear
11:54 PM 50.0 °F 39.0 °F 66% 30.02 in 10.0 mi Calm Calm - N/A   Clear